DELTA 1 DEB, 21319

Orbit data source: Space-Track

DELTA 1 DEB, 21319 is space debris in SSO originally from a launch on Thu, 12 Jun 1975 UTC launched from the Air Force Western Test Range (AFWTR). Debris objects in space refer to the collection of defunct objects orbiting the Earth. Examples of debris include non-operational satellites, rocket bodies, and fragments generated from explosions, collisions, or faulty payload assembly.

Loading next visibility...
DELTA 1 DEB details
Identifier
21319, 1975-052AM
Orbit
SSO
Last TLE update23 hours ago
Origin
Flag of USGSFC (US)
ManufacturerUnknown
MissionSpacecraft
Bus & MotorUnknown
MassUnknown
Launch date (UTC)
1975-06-12 (50 years ago)
Launch vehicleUnknown
Launch site
Air Force Western Test Range (AFWTR)
Object type
Payload
Rocket body
Debris
Shape & HBRUnknown
Radar Cross SectionSmall (<0.1 m²)

Expand to show TLE details & history

TLE from 23 hours ago
0 DELTA 1 DEB
1 21319U 75052AM  24360.58863865  .00000658  00000-0  18385-2 0  9995
2 21319  99.6591 213.0654 0237508   1.6844  52.9448 13.06563987599863
Epoch: 2024-12-25T14:07Z
Definitive object data (Epoch: 2024-12-25T14:07:38.379Z)
Latitude55.71361°
Longitude-107.80478°
Altitude1,139.434 km
Speed7.339 km/s
True Right ascension13h 14m 44s
True Declination55° 33' 41"
Sunlit
Object was in daylight at TLE epoch
Visualization TLE readout
Latitude-53.7508°
Longitude74.08152°
Altitude1,357.56 km
Speed7.131 km/s
Apparent Right ascension00h 54m 23s
Apparent Declination-47° 31' 49"
Sunlit
Object is in daylight
Visualization observer readout
Local Sidereal Time12:28:17
Azimuth209.545° SW
Elevation-81.052°
Doppler factor1
Orbital elements
Apogee altitude1,414.626 km
Perigee altitude1,053.045 km
Semi-major axis7,611.972 km
Eccentricity0.0237508
Inclination99.6591°
RAAN213.0654°
Arg. of periapsis1.6844°
True anomaly55.15581°
Mean anomaly52.9448°
Eccentric anomaly54.04637°
Mean motion3.26812 °/min
BSTAR0.0018385
Orbital period110.16 mins
Loading maneuver chart data...
Loading historical data...
Loading historical data...
Loading historical data...
Loading historical data...
Loading historical data...
Loading historical data...
Loading historical data...

DELTA 1 DEB Visibility forecast

Observer location: undefined°, undefined

Span
Click to sort rows by Start time (UTC) header in descending order
Start Az.
Max El. time (UTC)
Max El. Az.
Max El.
End time (UTC)
End Az.
12 mins2024-12-26 13:50:40.559Z147.566° SSE2024-12-26 13:56:40.559Z71.165° E41.161°2024-12-26 14:02:40.559Z353.487° N
8 mins2024-12-26 15:42:40.559Z233.117° WSW2024-12-26 15:45:40.559Z266.305° W19.839°2024-12-26 15:50:40.559Z315.279° NNW
6 mins2024-12-27 01:26:40.559Z68.659° E2024-12-27 01:28:40.559Z84.843° E14.437°2024-12-27 01:32:40.559Z116.141° SE
14 mins2024-12-27 03:12:40.559Z18.078° NNE2024-12-27 03:18:40.559Z121.211° SE44.662°2024-12-27 03:26:40.559Z192.703° SSW
9 mins2024-12-27 05:02:40.559Z335.791° NNW2024-12-27 05:06:40.559Z297.663° NW21.032°2024-12-27 05:11:40.559Z257.355° W
|